EZY2754 EGGD-GMAD

Flight info

Callsign EZY2754
Flight time N/A
Altitude 34000
Route EXMOR N92 DAWLY DCT BHD DCT SALCO DCT EBOMO/N0440F350 DCT BALDA DCT BATAX DCT PINOX DCT TOFEF DCT VFA DCT OSLAD/N0442F370 UR724 AGALI
Aircraft A320/M-SDE2E3FGHIJ1RWXYZ/LB1

Departure

Time 2026-05-07 13:41
Airport Bristol Airport (EGGD)

Arrival

Time N/A
Airport Al Massira Airport (GMAD)
Time Latitude Longitude Altitude Speed Heading
2026-05-07 13:17 51.38613 -2.70708 613 ft 0 kts 266°
2026-05-07 13:34 51.38611 -2.70775 616 ft 8 kts 267°
2026-05-07 13:34 51.38577 -2.70839 612 ft 9 kts 187°
2026-05-07 13:35 51.38493 -2.70829 617 ft 13 kts 163°
2026-05-07 13:35 51.38469 -2.70740 611 ft 4 kts 114°
2026-05-07 13:35 51.38405 -2.70723 610 ft 19 kts 198°
2026-05-07 13:35 51.38311 -2.70890 614 ft 24 kts 280°
2026-05-07 13:36 51.38300 -2.71156 611 ft 24 kts 265°
2026-05-07 13:36 51.38286 -2.71425 604 ft 25 kts 266°
2026-05-07 13:36 51.38275 -2.71693 608 ft 23 kts 266°
2026-05-07 13:36 51.38266 -2.71936 627 ft 21 kts 266°
2026-05-07 13:37 51.38258 -2.72151 621 ft 18 kts 268°
2026-05-07 13:37 51.38254 -2.72337 628 ft 15 kts 268°
2026-05-07 13:37 51.38247 -2.72482 629 ft 12 kts 265°
2026-05-07 13:37 51.38239 -2.72641 631 ft 17 kts 266°
2026-05-07 13:38 51.38230 -2.72864 629 ft 22 kts 267°
2026-05-07 13:38 51.38223 -2.73124 634 ft 25 kts 267°
2026-05-07 13:38 51.38246 -2.73313 621 ft 9 kts 239°
2026-05-07 13:38 51.38228 -2.73309 627 ft 1 kts 149°
2026-05-07 13:39 51.38219 -2.73295 625 ft 4 kts 132°
2026-05-07 13:39 51.38216 -2.73265 623 ft 0 kts 91°
2026-05-07 13:40 51.38218 -2.73149 632 ft 42 kts 87°
2026-05-07 13:40 51.38252 -2.72259 635 ft 117 kts 86°
2026-05-07 13:41 51.38319 -2.70630 764 ft 159 kts 88°
2026-05-07 13:41 51.38402 -2.68806 1345 ft 170 kts 88°
2026-05-07 13:41 51.38466 -2.66824 1903 ft 186 kts 91°
2026-05-07 13:41 51.38539 -2.64750 2477 ft 187 kts 90°
2026-05-07 13:42 51.38614 -2.62563 2725 ft 208 kts 90°
2026-05-07 13:42 51.38674 -2.60142 3010 ft 227 kts 91°
2026-05-07 13:42 51.38722 -2.57518 3280 ft 250 kts 94°
2026-05-07 13:42 51.38263 -2.54769 3812 ft 257 kts 121°
2026-05-07 13:43 51.37119 -2.52640 4531 ft 258 kts 146°
2026-05-07 13:43 51.35491 -2.51484 5279 ft 259 kts 171°
2026-05-07 13:43 51.33702 -2.51590 6049 ft 261 kts 196°
2026-05-07 13:43 51.32111 -2.52971 6804 ft 264 kts 221°
2026-05-07 13:44 51.31058 -2.55383 7539 ft 270 kts 248°
2026-05-07 13:44 51.30745 -2.58354 8302 ft 274 kts 265°
2026-05-07 13:44 51.30640 -2.61415 9040 ft 277 kts 265°
2026-05-07 13:44 51.30541 -2.64507 9759 ft 281 kts 264°
2026-05-07 13:45 51.30440 -2.67635 9983 ft 282 kts 265°
2026-05-07 13:45 51.30333 -2.70769 10127 ft 285 kts 264°
2026-05-07 13:45 51.30045 -2.74026 10305 ft 308 kts 258°
2026-05-07 13:45 51.29678 -2.77501 10574 ft 324 kts 257°
2026-05-07 13:46 51.28920 -2.80889 11155 ft 326 kts 238°
2026-05-07 13:46 51.27452 -2.83676 11538 ft 337 kts 218°
2026-05-07 13:46 51.25335 -2.85446 11674 ft 355 kts 197°
2026-05-07 13:46 51.22903 -2.86573 11810 ft 373 kts 196°
2026-05-07 13:47 51.20366 -2.87716 12112 ft 383 kts 196°
2026-05-07 13:47 51.17783 -2.88878 12598 ft 388 kts 196°
2026-05-07 13:47 51.15168 -2.90063 13072 ft 393 kts 196°
2026-05-07 13:47 51.12531 -2.91265 13648 ft 396 kts 196°
2026-05-07 13:48 51.09883 -2.92473 14178 ft 398 kts 196°
2026-05-07 13:48 51.07211 -2.93695 14616 ft 401 kts 196°
2026-05-07 13:48 51.05430 -2.94512 14901 ft 404 kts 197°
2026-05-07 13:48 51.02726 -2.95751 15368 ft 406 kts 197°
2026-05-07 13:49 51.00012 -2.96993 15838 ft 407 kts 197°
2026-05-07 13:49 50.97276 -2.98244 16245 ft 411 kts 197°
2026-05-07 13:49 50.94519 -2.99494 16657 ft 413 kts 197°
2026-05-07 13:49 50.90846 -3.01157 17208 ft 416 kts 197°
2026-05-07 13:50 50.88962 -3.02011 17474 ft 418 kts 197°
2026-05-07 13:50 50.86157 -3.03279 17850 ft 421 kts 197°
2026-05-07 13:50 50.82420 -3.04969 18366 ft 423 kts 197°
2026-05-07 13:50 50.80506 -3.05837 18586 ft 424 kts 197°
2026-05-07 13:51 50.77658 -3.07126 18896 ft 427 kts 197°
2026-05-07 13:51 50.74798 -3.08417 19204 ft 428 kts 197°
2026-05-07 13:51 50.71928 -3.09710 19517 ft 430 kts 197°
2026-05-07 13:51 50.69080 -3.10988 19804 ft 432 kts 197°
2026-05-07 13:52 50.66145 -3.12305 20082 ft 434 kts 197°
2026-05-07 13:52 50.63276 -3.13593 20361 ft 435 kts 197°
2026-05-07 13:52 50.60361 -3.14894 20619 ft 437 kts 197°
2026-05-07 13:52 50.57429 -3.16200 20871 ft 439 kts 197°
2026-05-07 13:53 50.54486 -3.17513 21130 ft 440 kts 197°
2026-05-07 13:53 50.51536 -3.18832 21381 ft 442 kts 197°
2026-05-07 13:53 50.48573 -3.20156 21626 ft 443 kts 197°
2026-05-07 13:53 50.45602 -3.21481 21870 ft 445 kts 197°
2026-05-07 13:54 50.42621 -3.22809 22102 ft 446 kts 197°
2026-05-07 13:54 50.39624 -3.24140 22332 ft 448 kts 196°
2026-05-07 13:54 50.36622 -3.25473 22533 ft 449 kts 196°
2026-05-07 13:54 50.33612 -3.26807 22752 ft 451 kts 196°
2026-05-07 13:55 50.30586 -3.28144 22962 ft 452 kts 196°
2026-05-07 13:55 50.27558 -3.29480 23161 ft 453 kts 196°
2026-05-07 13:55 50.24517 -3.30821 23346 ft 455 kts 196°
2026-05-07 13:55 50.21471 -3.32160 23526 ft 456 kts 196°
2026-05-07 13:56 50.18415 -3.33498 23700 ft 456 kts 196°
2026-05-07 13:56 50.15359 -3.34835 23908 ft 456 kts 196°
2026-05-07 13:56 50.12308 -3.36172 24124 ft 455 kts 196°
2026-05-07 13:56 50.09268 -3.37505 24350 ft 454 kts 196°
2026-05-07 13:57 50.06231 -3.38838 24571 ft 453 kts 196°
2026-05-07 13:57 50.03201 -3.40163 24787 ft 452 kts 196°
2026-05-07 13:57 50.00172 -3.41483 25016 ft 452 kts 196°
2026-05-07 13:57 49.97148 -3.42799 25244 ft 451 kts 196°
2026-05-07 13:58 49.94129 -3.44114 25474 ft 450 kts 196°
2026-05-07 13:58 49.91154 -3.45410 25699 ft 450 kts 196°
2026-05-07 13:58 49.88146 -3.46717 25941 ft 449 kts 196°
2026-05-07 13:58 49.85144 -3.48017 26182 ft 448 kts 196°
2026-05-07 13:59 49.82140 -3.49317 26433 ft 447 kts 196°
2026-05-07 13:59 49.79143 -3.50611 26684 ft 447 kts 196°
2026-05-07 13:59 49.76151 -3.51903 26936 ft 446 kts 196°
2026-05-07 13:59 49.73164 -3.53189 27185 ft 445 kts 196°
2026-05-07 14:00 49.70181 -3.54464 27437 ft 445 kts 196°
2026-05-07 14:00 49.67201 -3.55728 27699 ft 443 kts 196°
2026-05-07 14:00 49.64228 -3.56985 27967 ft 443 kts 196°
2026-05-07 14:00 49.61261 -3.58240 28238 ft 442 kts 196°
2026-05-07 14:01 49.58300 -3.59491 28509 ft 441 kts 195°
2026-05-07 14:01 49.55344 -3.60736 28786 ft 440 kts 196°
2026-05-07 14:01 49.52394 -3.61977 29061 ft 439 kts 196°
2026-05-07 14:01 49.49450 -3.63214 29335 ft 438 kts 196°
2026-05-07 14:02 49.46513 -3.64448 29596 ft 437 kts 195°
2026-05-07 14:02 49.43579 -3.65677 29860 ft 437 kts 195°
2026-05-07 14:02 49.40651 -3.66906 30125 ft 436 kts 195°
2026-05-07 14:02 49.37727 -3.68136 30349 ft 435 kts 195°
2026-05-07 14:03 49.34809 -3.69362 30571 ft 435 kts 195°
2026-05-07 14:03 49.31893 -3.70584 30794 ft 434 kts 195°
2026-05-07 14:03 49.28982 -3.71800 31015 ft 433 kts 195°
2026-05-07 14:03 49.26075 -3.73012 31232 ft 433 kts 195°
2026-05-07 14:04 49.23174 -3.74218 31433 ft 432 kts 195°
2026-05-07 14:04 49.20274 -3.75422 31654 ft 432 kts 195°
2026-05-07 14:04 49.17376 -3.76626 31872 ft 431 kts 195°
2026-05-07 14:04 49.14483 -3.77828 32095 ft 430 kts 195°
2026-05-07 14:05 49.11636 -3.79012 32324 ft 430 kts 195°
2026-05-07 14:05 49.08755 -3.80213 32545 ft 429 kts 195°
2026-05-07 14:05 49.05877 -3.81407 32792 ft 428 kts 195°
2026-05-07 14:05 49.03003 -3.82591 33013 ft 427 kts 195°
2026-05-07 14:06 49.00131 -3.83768 33223 ft 427 kts 195°
2026-05-07 14:06 48.97265 -3.84940 33438 ft 427 kts 195°
2026-05-07 14:06 48.94403 -3.86114 33641 ft 426 kts 195°
2026-05-07 14:06 48.91541 -3.87290 33857 ft 425 kts 195°
2026-05-07 14:07 48.88684 -3.88469 33972 ft 427 kts 195°
2026-05-07 14:07 48.82916 -3.90838 33986 ft 431 kts 195°
2026-05-07 14:08 48.77110 -3.93200 33993 ft 432 kts 195°
2026-05-07 14:08 48.71315 -3.95558 33976 ft 431 kts 195°
2026-05-07 14:09 48.65524 -3.97913 33978 ft 431 kts 195°
2026-05-07 14:09 48.59734 -4.00267 34002 ft 431 kts 195°
2026-05-07 14:10 48.53947 -4.02616 33994 ft 431 kts 195°
2026-05-07 14:10 48.48159 -4.04949 33988 ft 430 kts 195°
2026-05-07 14:11 48.42377 -4.07284 33995 ft 430 kts 195°
2026-05-07 14:11 48.36598 -4.09618 33990 ft 430 kts 195°
2026-05-07 14:12 48.30819 -4.11931 33993 ft 430 kts 195°
2026-05-07 14:12 48.25037 -4.14243 33988 ft 430 kts 195°
2026-05-07 14:13 48.19255 -4.16546 33984 ft 430 kts 195°
2026-05-07 14:13 48.13473 -4.18851 33991 ft 430 kts 195°
2026-05-07 14:14 48.07688 -4.21159 33988 ft 430 kts 195°
2026-05-07 14:14 48.01948 -4.23432 33999 ft 430 kts 195°
2026-05-07 14:15 47.96161 -4.25714 34004 ft 430 kts 195°
2026-05-07 14:15 47.90380 -4.27994 33999 ft 430 kts 195°
2026-05-07 14:16 47.84605 -4.30270 33994 ft 429 kts 195°
2026-05-07 14:16 47.78829 -4.32558 34002 ft 429 kts 196°
2026-05-07 14:17 47.73070 -4.34917 33995 ft 429 kts 196°
2026-05-07 14:17 47.67317 -4.37300 33995 ft 429 kts 196°
2026-05-07 14:18 47.61558 -4.39661 34003 ft 429 kts 196°
2026-05-07 14:18 47.55798 -4.42010 33998 ft 430 kts 196°
2026-05-07 14:19 47.50030 -4.44349 33986 ft 430 kts 196°
2026-05-07 14:19 47.44259 -4.46683 33987 ft 430 kts 196°
2026-05-07 14:20 47.38518 -4.48991 33998 ft 431 kts 196°
2026-05-07 14:20 47.32699 -4.51339 33994 ft 431 kts 196°
2026-05-07 14:21 47.26955 -4.53661 33991 ft 431 kts 196°
2026-05-07 14:21 47.21162 -4.55981 33996 ft 432 kts 196°
2026-05-07 14:22 47.15366 -4.58298 34000 ft 432 kts 196°
2026-05-07 14:22 47.09564 -4.60617 33995 ft 432 kts 196°
2026-05-07 14:23 47.03759 -4.62928 33991 ft 433 kts 196°
2026-05-07 14:23 46.97945 -4.65247 33991 ft 433 kts 196°
2026-05-07 14:24 46.92127 -4.67565 33992 ft 434 kts 196°
2026-05-07 14:24 46.86300 -4.69868 33987 ft 434 kts 195°
2026-05-07 14:25 46.80472 -4.72169 33990 ft 434 kts 196°
2026-05-07 14:25 46.74629 -4.74476 33991 ft 435 kts 195°
2026-05-07 14:26 46.68787 -4.76778 33991 ft 435 kts 195°
2026-05-07 14:26 46.62940 -4.79074 33993 ft 435 kts 195°
2026-05-07 14:27 46.57087 -4.81356 33991 ft 435 kts 195°
2026-05-07 14:27 46.51236 -4.83630 33994 ft 435 kts 195°
2026-05-07 14:28 46.45381 -4.85916 33979 ft 436 kts 196°
2026-05-07 14:28 46.39516 -4.88201 33980 ft 437 kts 196°
2026-05-07 14:29 46.33638 -4.90484 33979 ft 438 kts 196°
2026-05-07 14:29 46.27792 -4.92751 33981 ft 438 kts 196°
2026-05-07 14:30 46.21898 -4.95029 33968 ft 439 kts 196°
2026-05-07 14:30 46.15994 -4.97302 33973 ft 439 kts 196°
2026-05-07 14:31 46.10087 -4.99572 33972 ft 440 kts 196°
2026-05-07 14:31 46.04171 -5.01837 33966 ft 440 kts 195°
2026-05-07 14:32 45.98255 -5.04097 33972 ft 440 kts 195°
2026-05-07 14:32 45.92334 -5.06351 33972 ft 440 kts 195°
2026-05-07 14:33 45.86413 -5.08616 33971 ft 440 kts 196°
2026-05-07 14:33 45.80490 -5.10885 33968 ft 441 kts 196°
2026-05-07 14:34 45.74554 -5.13135 33957 ft 442 kts 196°
2026-05-07 14:34 45.68594 -5.15374 33958 ft 443 kts 196°
2026-05-07 14:35 45.62622 -5.17632 33948 ft 444 kts 196°
2026-05-07 14:35 45.56643 -5.19888 33951 ft 445 kts 196°
2026-05-07 14:36 45.50659 -5.22144 33955 ft 445 kts 196°
2026-05-07 14:36 45.44667 -5.24397 33949 ft 445 kts 196°
2026-05-07 14:37 45.38679 -5.26639 33955 ft 445 kts 196°
2026-05-07 14:37 45.29733 -5.29983 33956 ft 445 kts 196°
2026-05-07 14:38 45.23739 -5.32209 33944 ft 445 kts 196°
2026-05-07 14:38 45.17740 -5.34431 33940 ft 446 kts 196°
2026-05-07 14:39 45.11736 -5.36656 33943 ft 446 kts 196°
2026-05-07 14:39 45.05725 -5.38888 33924 ft 448 kts 197°
2026-05-07 14:40 45.00662 -5.40762 33917 ft 450 kts 197°
2026-05-07 14:40 44.94597 -5.43001 33921 ft 451 kts 197°
2026-05-07 14:41 44.88515 -5.45245 33922 ft 452 kts 197°
2026-05-07 14:41 44.82460 -5.47459 33921 ft 453 kts 197°
2026-05-07 14:42 44.76364 -5.49688 33924 ft 453 kts 197°
2026-05-07 14:42 44.70259 -5.51917 33924 ft 453 kts 197°
2026-05-07 14:43 44.64156 -5.54145 33928 ft 453 kts 197°
2026-05-07 14:43 44.58050 -5.56383 33925 ft 453 kts 197°
2026-05-07 14:44 44.51963 -5.58728 33920 ft 453 kts 198°
2026-05-07 14:44 44.45892 -5.61100 33916 ft 453 kts 198°
2026-05-07 14:45 44.39811 -5.63458 33913 ft 453 kts 198°
2026-05-07 14:45 44.33726 -5.65789 33915 ft 453 kts 198°
2026-05-07 14:46 44.27633 -5.68100 33903 ft 454 kts 198°
2026-05-07 14:46 44.21547 -5.70415 33903 ft 454 kts 198°
2026-05-07 14:47 44.15446 -5.72736 33887 ft 455 kts 198°
2026-05-07 14:47 44.09320 -5.75064 33891 ft 457 kts 198°
2026-05-07 14:48 44.03170 -5.77395 33884 ft 459 kts 198°
2026-05-07 14:48 43.96998 -5.79733 33881 ft 460 kts 198°
2026-05-07 14:49 43.90810 -5.82070 33881 ft 461 kts 198°
2026-05-07 14:49 43.84620 -5.84395 33873 ft 461 kts 198°
2026-05-07 14:50 43.78423 -5.86725 33870 ft 462 kts 198°
2026-05-07 14:50 43.72222 -5.89042 33870 ft 462 kts 198°
2026-05-07 14:51 43.66018 -5.91366 33855 ft 462 kts 198°
2026-05-07 14:51 43.59814 -5.93684 33862 ft 462 kts 198°
2026-05-07 14:52 43.53601 -5.95992 33871 ft 462 kts 198°
2026-05-07 14:52 43.47386 -5.98297 33873 ft 462 kts 198°
2026-05-07 14:53 43.41161 -6.00607 33859 ft 464 kts 198°
2026-05-07 14:53 43.34920 -6.02917 33857 ft 465 kts 198°
2026-05-07 14:54 43.28709 -6.05211 33855 ft 466 kts 198°
2026-05-07 14:54 43.22450 -6.07517 33839 ft 466 kts 199°
2026-05-07 14:55 43.16179 -6.09825 33832 ft 467 kts 199°
2026-05-07 14:55 43.09897 -6.12124 33832 ft 468 kts 199°
2026-05-07 14:56 43.03586 -6.14439 33833 ft 470 kts 199°
2026-05-07 14:56 42.97265 -6.16760 33830 ft 470 kts 199°
2026-05-07 14:57 42.90936 -6.19064 33836 ft 471 kts 199°
2026-05-07 14:57 42.84602 -6.21355 33826 ft 471 kts 199°
2026-05-07 14:58 42.78274 -6.23646 33830 ft 471 kts 199°
2026-05-07 14:58 42.71990 -6.25929 33827 ft 470 kts 199°
2026-05-07 14:59 42.65662 -6.28216 33827 ft 470 kts 199°
2026-05-07 14:59 42.59339 -6.30488 33833 ft 470 kts 199°
2026-05-07 15:00 42.53014 -6.32776 33834 ft 470 kts 199°
2026-05-07 15:00 42.46693 -6.35054 33839 ft 470 kts 199°
2026-05-07 15:01 42.40368 -6.37318 33832 ft 470 kts 199°
2026-05-07 15:01 42.34045 -6.39563 33833 ft 470 kts 199°
2026-05-07 15:02 42.27722 -6.41820 33836 ft 470 kts 199°
2026-05-07 15:02 42.21402 -6.44074 33812 ft 470 kts 199°
2026-05-07 15:03 42.15081 -6.46322 33826 ft 470 kts 199°
2026-05-07 15:03 42.08763 -6.48563 33822 ft 470 kts 200°
2026-05-07 15:04 42.02442 -6.50798 33832 ft 470 kts 200°
2026-05-07 15:04 41.96118 -6.53027 33835 ft 470 kts 201°
2026-05-07 15:05 41.89796 -6.55252 33835 ft 470 kts 201°
2026-05-07 15:05 41.83476 -6.57473 33835 ft 469 kts 201°
2026-05-07 15:06 41.77155 -6.59700 33820 ft 469 kts 201°
2026-05-07 15:06 41.70843 -6.61919 33829 ft 469 kts 201°
2026-05-07 15:07 41.64530 -6.64138 33836 ft 469 kts 201°
2026-05-07 15:07 41.58221 -6.66359 33822 ft 467 kts 201°
2026-05-07 15:08 41.52044 -6.68569 33852 ft 451 kts 202°
2026-05-07 15:08 41.46096 -6.70691 33851 ft 440 kts 202°
2026-05-07 15:09 41.40244 -6.72749 33852 ft 430 kts 202°
2026-05-07 15:09 41.34450 -6.74756 33847 ft 435 kts 203°
2026-05-07 15:10 41.28506 -6.76800 33856 ft 448 kts 203°
2026-05-07 15:10 41.22403 -6.78917 33858 ft 458 kts 203°
2026-05-07 15:11 41.16181 -6.81076 33858 ft 466 kts 202°
2026-05-07 15:11 41.09879 -6.83262 33857 ft 470 kts 203°
2026-05-07 15:12 41.03560 -6.85447 33858 ft 467 kts 202°
2026-05-07 15:12 40.97280 -6.87608 33861 ft 466 kts 202°
2026-05-07 15:13 40.91012 -6.89766 33836 ft 465 kts 202°
2026-05-07 15:13 40.84760 -6.91911 33860 ft 463 kts 202°
2026-05-07 15:14 40.78525 -6.94058 33867 ft 463 kts 202°
2026-05-07 15:14 40.72304 -6.96193 33865 ft 462 kts 202°
2026-05-07 15:15 40.66086 -6.98333 33851 ft 461 kts 202°
2026-05-07 15:15 40.59871 -7.00464 33855 ft 461 kts 202°
2026-05-07 15:16 40.53653 -7.02570 33852 ft 461 kts 202°
2026-05-07 15:16 40.47483 -7.04661 33850 ft 461 kts 202°
2026-05-07 15:17 40.41277 -7.06772 33848 ft 461 kts 202°
2026-05-07 15:17 40.35069 -7.08881 33847 ft 461 kts 202°
2026-05-07 15:18 40.28858 -7.10984 33848 ft 461 kts 202°
2026-05-07 15:18 40.22656 -7.13088 33819 ft 460 kts 202°
2026-05-07 15:19 40.16457 -7.15198 33825 ft 460 kts 202°
2026-05-07 15:19 40.10269 -7.17314 33832 ft 460 kts 202°
2026-05-07 15:20 40.04077 -7.19421 33837 ft 460 kts 202°
2026-05-07 15:20 39.97885 -7.21511 33828 ft 459 kts 202°
2026-05-07 15:21 39.91703 -7.23593 33835 ft 458 kts 202°
2026-05-07 15:21 39.85537 -7.25673 33847 ft 457 kts 202°
2026-05-07 15:22 39.79385 -7.27749 33827 ft 457 kts 202°
2026-05-07 15:22 39.73279 -7.29801 33841 ft 456 kts 202°
2026-05-07 15:23 39.67099 -7.31882 33848 ft 456 kts 202°
2026-05-07 15:23 39.61005 -7.33929 33851 ft 455 kts 202°
2026-05-07 15:24 39.54872 -7.35977 33830 ft 455 kts 202°
2026-05-07 15:24 39.48696 -7.37866 33834 ft 457 kts 199°
2026-05-07 15:25 39.42428 -7.39383 33839 ft 459 kts 198°
2026-05-07 15:25 39.36141 -7.40825 33845 ft 458 kts 198°
2026-05-07 15:26 39.29876 -7.42353 33829 ft 458 kts 198°
2026-05-07 15:26 39.23633 -7.43931 33837 ft 457 kts 199°
2026-05-07 15:27 39.17395 -7.45503 33848 ft 457 kts 198°
2026-05-07 15:27 39.11151 -7.47050 33832 ft 457 kts 198°
2026-05-07 15:28 39.05968 -7.48325 33836 ft 456 kts 198°
2026-05-07 15:28 38.99727 -7.49855 33844 ft 456 kts 198°
2026-05-07 15:29 38.93493 -7.51390 33848 ft 456 kts 198°
2026-05-07 15:29 38.87266 -7.52930 33823 ft 456 kts 199°
2026-05-07 15:30 38.81046 -7.54462 33846 ft 455 kts 198°
2026-05-07 15:30 38.74821 -7.55987 33852 ft 455 kts 198°
2026-05-07 15:31 38.68603 -7.57509 33857 ft 455 kts 198°
2026-05-07 15:31 38.62390 -7.59028 33845 ft 454 kts 198°
2026-05-07 15:32 38.56188 -7.60550 33858 ft 453 kts 198°
2026-05-07 15:32 38.49995 -7.62052 33871 ft 453 kts 198°
2026-05-07 15:33 38.43810 -7.63549 33877 ft 452 kts 198°
2026-05-07 15:33 38.37681 -7.65041 33871 ft 451 kts 198°
2026-05-07 15:34 38.31525 -7.66536 33886 ft 450 kts 198°
2026-05-07 15:34 38.25377 -7.68028 33888 ft 450 kts 198°
2026-05-07 15:35 38.19234 -7.69509 33896 ft 449 kts 198°
2026-05-07 15:35 38.13093 -7.70988 33891 ft 449 kts 198°
2026-05-07 15:36 38.06956 -7.72465 33888 ft 449 kts 198°
2026-05-07 15:36 38.00819 -7.73935 33889 ft 449 kts 198°
2026-05-07 15:37 37.94685 -7.75412 33871 ft 448 kts 198°
2026-05-07 15:37 37.88557 -7.76883 33851 ft 448 kts 198°
2026-05-07 15:38 37.82433 -7.78346 33865 ft 448 kts 198°
2026-05-07 15:38 37.76317 -7.79802 33869 ft 447 kts 198°
2026-05-07 15:39 37.70198 -7.81259 33873 ft 447 kts 198°
2026-05-07 15:39 37.64089 -7.82711 33876 ft 446 kts 198°
2026-05-07 15:40 37.57987 -7.84158 33881 ft 446 kts 198°
2026-05-07 15:40 37.51891 -7.85603 33889 ft 446 kts 198°
2026-05-07 15:41 37.45801 -7.87050 33889 ft 445 kts 198°
2026-05-07 15:41 37.39720 -7.88486 33887 ft 444 kts 198°
2026-05-07 15:42 37.33652 -7.89919 33905 ft 443 kts 198°
2026-05-07 15:42 37.27592 -7.91346 33901 ft 443 kts 198°
2026-05-07 15:43 37.21579 -7.92758 33924 ft 443 kts 198°
2026-05-07 15:43 37.15528 -7.94176 33910 ft 442 kts 198°
2026-05-07 15:44 37.09485 -7.95590 33925 ft 442 kts 198°
2026-05-07 15:44 37.03447 -7.97007 33927 ft 441 kts 198°
2026-05-07 15:45 36.97462 -7.98585 33924 ft 438 kts 201°
2026-05-07 15:45 36.91594 -8.00560 33903 ft 436 kts 203°
2026-05-07 15:46 36.82816 -8.03595 33913 ft 437 kts 202°
2026-05-07 15:47 36.76932 -8.05525 33924 ft 437 kts 202°
2026-05-07 15:47 36.71040 -8.07429 33913 ft 438 kts 202°
2026-05-07 15:48 36.65141 -8.09341 33922 ft 438 kts 202°
2026-05-07 15:48 36.59236 -8.11254 33926 ft 439 kts 202°
2026-05-07 15:49 36.53322 -8.13165 33932 ft 439 kts 202°
2026-05-07 15:49 36.47407 -8.15078 33937 ft 439 kts 202°
2026-05-07 15:50 36.41495 -8.16999 33927 ft 439 kts 202°
2026-05-07 15:50 36.35592 -8.18915 33938 ft 439 kts 202°
2026-05-07 15:51 36.29680 -8.20822 33951 ft 439 kts 202°
2026-05-07 15:51 36.23774 -8.22725 33958 ft 439 kts 202°
2026-05-07 15:52 36.17904 -8.24609 33938 ft 439 kts 201°